AIC705 VTSP-VOBL

Flight info

Callsign AIC705
Flight time N/A
Altitude 40000
Route UBNEN1B UBNEN L645 IDKUT L510 AGEGA DCT DUMAR P761 MMV W117 XIVIL XIVIL7E
Aircraft B772/H-SDE2E3FGHIJ5LORVWXY/LB1D1

Departure

Time 2026-04-27 10:31
Airport Phuket International Airport (VTSP)

Arrival

Time N/A
Airport Kempegowda International Airport Bengaluru (VOBL)
Time Latitude Longitude Altitude Speed Heading
2026-04-27 10:15 8.10653 98.30478 32 ft 0 kts 105°
2026-04-27 10:19 8.10656 98.30469 31 ft 3 kts 105°
2026-04-27 10:19 8.10662 98.30447 31 ft 3 kts 105°
2026-04-27 10:19 8.10666 98.30427 31 ft 3 kts 99°
2026-04-27 10:19 8.10668 98.30408 31 ft 3 kts 81°
2026-04-27 10:20 8.10666 98.30395 31 ft 3 kts 44°
2026-04-27 10:20 8.10660 98.30390 31 ft 2 kts 15°
2026-04-27 10:20 8.10642 98.30386 30 ft 3 kts 15°
2026-04-27 10:20 8.10630 98.30382 29 ft 0 kts 15°
2026-04-27 10:22 8.10654 98.30389 27 ft 5 kts 15°
2026-04-27 10:22 8.10686 98.30398 31 ft 5 kts 15°
2026-04-27 10:23 8.10719 98.30406 31 ft 5 kts 15°
2026-04-27 10:23 8.10752 98.30415 31 ft 5 kts 15°
2026-04-27 10:23 8.10788 98.30425 31 ft 6 kts 15°
2026-04-27 10:23 8.10831 98.30437 31 ft 8 kts 15°
2026-04-27 10:24 8.10882 98.30451 31 ft 8 kts 15°
2026-04-27 10:24 8.10952 98.30469 31 ft 11 kts 14°
2026-04-27 10:24 8.11015 98.30486 31 ft 9 kts 17°
2026-04-27 10:24 8.11048 98.30533 32 ft 9 kts 77°
2026-04-27 10:25 8.11056 98.30594 32 ft 9 kts 84°
2026-04-27 10:25 8.11063 98.30667 32 ft 13 kts 85°
2026-04-27 10:25 8.11071 98.30761 33 ft 13 kts 84°
2026-04-27 10:25 8.11080 98.30854 33 ft 13 kts 84°
2026-04-27 10:26 8.11099 98.30946 34 ft 14 kts 66°
2026-04-27 10:26 8.11126 98.31043 34 ft 14 kts 84°
2026-04-27 10:26 8.11136 98.31144 34 ft 14 kts 84°
2026-04-27 10:26 8.11144 98.31231 35 ft 14 kts 84°
2026-04-27 10:27 8.11153 98.31326 37 ft 14 kts 85°
2026-04-27 10:27 8.11162 98.31427 40 ft 14 kts 85°
2026-04-27 10:27 8.11169 98.31514 43 ft 14 kts 84°
2026-04-27 10:27 8.11178 98.31613 47 ft 14 kts 85°
2026-04-27 10:28 8.11187 98.31714 49 ft 14 kts 84°
2026-04-27 10:28 8.11200 98.31841 52 ft 23 kts 83°
2026-04-27 10:28 8.11216 98.32006 57 ft 24 kts 85°
2026-04-27 10:28 8.11231 98.32172 71 ft 24 kts 85°
2026-04-27 10:29 8.11247 98.32336 70 ft 24 kts 84°
2026-04-27 10:29 8.11263 98.32501 88 ft 24 kts 84°
2026-04-27 10:29 8.11279 98.32667 90 ft 24 kts 85°
2026-04-27 10:29 8.11294 98.32832 92 ft 24 kts 85°
2026-04-27 10:30 8.11303 98.32933 95 ft 11 kts 85°
2026-04-27 10:30 8.11329 98.33001 97 ft 11 kts 40°
2026-04-27 10:30 8.11402 98.33011 97 ft 11 kts 337°
2026-04-27 10:30 8.11437 98.32944 96 ft 11 kts 279°
2026-04-27 10:31 8.11432 98.32837 91 ft 29 kts 265°
2026-04-27 10:31 8.11380 98.32297 72 ft 130 kts 264°
2026-04-27 10:31 8.11273 98.31122 371 ft 196 kts 265°
2026-04-27 10:31 8.11134 98.29648 1212 ft 225 kts 262°
2026-04-27 10:32 8.10970 98.28022 2200 ft 241 kts 263°
2026-04-27 10:32 8.10801 98.26314 2969 ft 252 kts 264°
2026-04-27 10:32 8.10622 98.24482 3558 ft 269 kts 264°
2026-04-27 10:32 8.10438 98.22578 4420 ft 277 kts 265°
2026-04-27 10:33 8.10303 98.20603 5264 ft 285 kts 268°
2026-04-27 10:33 8.10236 98.18584 6166 ft 291 kts 268°
2026-04-27 10:33 8.10179 98.16532 7082 ft 294 kts 268°
2026-04-27 10:33 8.10119 98.14454 8023 ft 297 kts 268°
2026-04-27 10:34 8.10054 98.12355 8969 ft 301 kts 268°
2026-04-27 10:34 8.09984 98.10234 9868 ft 305 kts 267°
2026-04-27 10:34 8.09911 98.08089 10706 ft 308 kts 267°
2026-04-27 10:34 8.09834 98.05909 11539 ft 312 kts 267°
2026-04-27 10:35 8.09756 98.03729 12346 ft 317 kts 268°
2026-04-27 10:35 8.09676 98.01497 13216 ft 319 kts 268°
2026-04-27 10:35 8.09594 97.99229 13837 ft 331 kts 268°
2026-04-27 10:35 8.09506 97.96821 13988 ft 358 kts 268°
2026-04-27 10:36 8.09412 97.94254 14556 ft 368 kts 268°
2026-04-27 10:36 8.09317 97.91658 15393 ft 372 kts 268°
2026-04-27 10:36 8.09221 97.89032 16166 ft 376 kts 268°
2026-04-27 10:36 8.09124 97.86375 16924 ft 382 kts 268°
2026-04-27 10:37 8.09026 97.83703 17634 ft 389 kts 268°
2026-04-27 10:37 8.08924 97.80950 18290 ft 396 kts 268°
2026-04-27 10:37 8.08807 97.78158 18883 ft 402 kts 267°
2026-04-27 10:37 8.08663 97.75316 19530 ft 407 kts 267°
2026-04-27 10:38 8.08510 97.72456 20207 ft 410 kts 267°
2026-04-27 10:38 8.08355 97.69569 20885 ft 414 kts 267°
2026-04-27 10:38 8.08202 97.66654 21528 ft 418 kts 267°
2026-04-27 10:38 8.08048 97.63702 22157 ft 423 kts 267°
2026-04-27 10:39 8.07895 97.60725 22811 ft 427 kts 267°
2026-04-27 10:39 8.07740 97.57713 23448 ft 432 kts 267°
2026-04-27 10:39 8.07583 97.54670 23994 ft 436 kts 267°
2026-04-27 10:39 8.07476 97.52640 24358 ft 438 kts 267°
2026-04-27 10:40 8.07311 97.49558 24921 ft 442 kts 267°
2026-04-27 10:40 8.07088 97.45421 25655 ft 448 kts 267°
2026-04-27 10:40 8.06973 97.43289 26018 ft 451 kts 267°
2026-04-27 10:40 8.06801 97.40111 26546 ft 455 kts 267°
2026-04-27 10:41 8.06630 97.36947 27043 ft 459 kts 267°
2026-04-27 10:41 8.06456 97.33710 27547 ft 463 kts 267°
2026-04-27 10:41 8.06280 97.30453 28015 ft 467 kts 268°
2026-04-27 10:41 8.06101 97.27152 28485 ft 471 kts 268°
2026-04-27 10:42 8.05922 97.23842 28959 ft 475 kts 268°
2026-04-27 10:42 8.05745 97.20497 29405 ft 479 kts 268°
2026-04-27 10:42 8.05617 97.17165 29823 ft 482 kts 269°
2026-04-27 10:42 8.05520 97.13762 30195 ft 486 kts 269°
2026-04-27 10:43 8.05435 97.10340 30587 ft 488 kts 269°
2026-04-27 10:43 8.05351 97.06915 30991 ft 489 kts 269°
2026-04-27 10:43 8.05263 97.03479 31365 ft 491 kts 269°
2026-04-27 10:43 8.05169 97.00034 31710 ft 493 kts 269°
2026-04-27 10:44 8.05070 96.96563 32044 ft 495 kts 269°
2026-04-27 10:44 8.04968 96.93083 32367 ft 497 kts 268°
2026-04-27 10:44 8.04864 96.89592 32674 ft 499 kts 268°
2026-04-27 10:44 8.04760 96.86129 32956 ft 501 kts 268°
2026-04-27 10:45 8.04653 96.82558 33236 ft 503 kts 268°
2026-04-27 10:45 8.04547 96.79018 33505 ft 505 kts 268°
2026-04-27 10:45 8.04442 96.75520 33752 ft 506 kts 268°
2026-04-27 10:45 8.04334 96.71963 33946 ft 508 kts 268°
2026-04-27 10:46 8.04227 96.68401 34165 ft 509 kts 268°
2026-04-27 10:46 8.04119 96.64823 34385 ft 509 kts 268°
2026-04-27 10:46 8.04011 96.61250 34616 ft 509 kts 268°
2026-04-27 10:46 8.03902 96.57687 34937 ft 507 kts 268°
2026-04-27 10:47 8.03794 96.54141 35294 ft 504 kts 268°
2026-04-27 10:47 8.03687 96.50613 35650 ft 502 kts 268°
2026-04-27 10:47 8.03579 96.47094 35974 ft 500 kts 267°
2026-04-27 10:47 8.03471 96.43593 36282 ft 499 kts 267°
2026-04-27 10:48 8.03364 96.40105 36578 ft 497 kts 267°
2026-04-27 10:48 8.03257 96.36653 36891 ft 496 kts 267°
2026-04-27 10:48 8.03149 96.33176 37202 ft 494 kts 267°
2026-04-27 10:48 8.03042 96.29717 37516 ft 492 kts 267°
2026-04-27 10:49 8.02934 96.26270 37801 ft 491 kts 267°
2026-04-27 10:49 8.02827 96.22831 38085 ft 490 kts 266°
2026-04-27 10:49 8.02719 96.19394 38358 ft 489 kts 266°
2026-04-27 10:49 8.02611 96.15971 38607 ft 487 kts 266°
2026-04-27 10:50 8.02505 96.12592 38814 ft 486 kts 266°
2026-04-27 10:50 8.02398 96.09184 39012 ft 486 kts 266°
2026-04-27 10:50 8.02290 96.05780 39209 ft 485 kts 267°
2026-04-27 10:50 8.02182 96.02383 39417 ft 484 kts 267°
2026-04-27 10:51 8.02074 95.98993 39611 ft 483 kts 267°
2026-04-27 10:51 8.01966 95.95598 39737 ft 484 kts 267°
2026-04-27 10:51 8.01748 95.88807 39825 ft 484 kts 267°
2026-04-27 10:52 8.01530 95.82032 39825 ft 482 kts 267°
2026-04-27 10:52 8.01311 95.75272 39827 ft 481 kts 267°
2026-04-27 10:53 8.00982 95.65170 39831 ft 480 kts 267°
2026-04-27 10:54 8.00761 95.58433 39816 ft 480 kts 267°
2026-04-27 10:54 8.00651 95.51754 39818 ft 479 kts 275°
2026-04-27 10:54 8.01378 95.48475 39833 ft 481 kts 290°
2026-04-27 10:55 8.02880 95.45450 39836 ft 483 kts 302°
2026-04-27 10:55 8.06314 95.39614 39832 ft 484 kts 297°
2026-04-27 10:56 8.09473 95.33589 39837 ft 487 kts 296°
2026-04-27 10:56 8.12616 95.27492 39832 ft 489 kts 296°
2026-04-27 10:57 8.15789 95.21403 39830 ft 490 kts 296°
2026-04-27 10:57 8.18979 95.15322 39825 ft 490 kts 296°
2026-04-27 10:58 8.22165 95.09254 39823 ft 489 kts 296°
2026-04-27 10:58 8.25324 95.03231 39827 ft 488 kts 296°
2026-04-27 10:59 8.28496 94.97179 39828 ft 487 kts 296°
2026-04-27 10:59 8.31658 94.91143 39830 ft 486 kts 296°
2026-04-27 11:00 8.36399 94.82087 39827 ft 485 kts 296°
2026-04-27 11:00 8.39552 94.76062 39827 ft 485 kts 296°
2026-04-27 11:01 8.42704 94.70034 39826 ft 485 kts 296°
2026-04-27 11:01 8.45833 94.64049 39830 ft 485 kts 296°
2026-04-27 11:02 8.48987 94.58012 39831 ft 485 kts 296°
2026-04-27 11:02 8.52141 94.51971 39821 ft 486 kts 296°
2026-04-27 11:03 8.55292 94.45934 39825 ft 486 kts 296°
2026-04-27 11:03 8.58495 94.39921 39825 ft 486 kts 299°
2026-04-27 11:04 8.62054 94.34153 39825 ft 485 kts 301°
2026-04-27 11:04 8.65706 94.28420 39836 ft 485 kts 301°
2026-04-27 11:05 8.66547 94.27085 39832 ft 485 kts 301°
2026-04-27 11:16 8.67237 94.25984 39828 ft 484 kts 301°